This is the latest recevied weather packets stored in our database for station/object KC8BSD. If no packets are shown the sender has not sent any weather packets the latest 10 day(s).
| Time | Temp. | Humidity | Pressure | Rain* | Wind** | Luminosity | Snow |
|---|---|---|---|---|---|---|---|
| 1778095863 | 12.78° C | 44% | 1014.1 hPa | 0 mm | - | 263 W/m² | - |
| 1778095559 | 11.67° C | 47% | 1014.2 hPa | 0 mm | - | 567 W/m² | - |
| 1778095255 | 12.22° C | 45% | 1014.2 hPa | 0 mm | - | 316 W/m² | - |
| 1778094952 | 11.67° C | 48% | 1014.1 hPa | 0 mm | - | 380 W/m² | - |
| 1778094648 | 11.67° C | 46% | 1014.4 hPa | 0 mm | - | 280 W/m² | - |
| 1778094345 | 11.67° C | 46% | 1014.3 hPa | 0 mm | - | 255 W/m² | - |
| 1778094042 | 11.67° C | 46% | 1014.3 hPa | 0 mm | - | 254 W/m² | - |
| 1778093740 | 11.67° C | 48% | 1014.3 hPa | 0 mm | - | 243 W/m² | - |
| 1778093436 | 11.67° C | 47% | 1014.2 hPa | 0 mm | - | 302 W/m² | - |
| 1778093133 | 11.11° C | 51% | 1014.1 hPa | 0 mm | - | 257 W/m² | - |
| 1778092831 | 10.56° C | 48% | 1014.1 hPa | 0 mm | - | 252 W/m² | - |
| 1778092526 | 10.56° C | 50% | 1013.9 hPa | 0 mm | - | 235 W/m² | - |
| 1778092223 | 11.11° C | 51% | 1014 hPa | 0 mm | - | 173 W/m² | - |
| 1778091921 | 11.11° C | 48% | 1014 hPa | 0 mm | - | 171 W/m² | - |
| 1778091618 | 11.11° C | 49% | 1014.1 hPa | 0 mm | - | 320 W/m² | - |
| 1778091316 | 11.67° C | 47% | 1014 hPa | 0 mm | - | 194 W/m² | - |
| 1778091012 | 11.67° C | 48% | 1014.2 hPa | 0 mm | - | 232 W/m² | - |
| 1778090709 | 11.67° C | 46% | 1013.9 hPa | 0 mm | - | 347 W/m² | - |
| 1778090405 | 11.67° C | 46% | 1014.1 hPa | 0 mm | - | 524 W/m² | - |
| 1778090102 | 11.11° C | 48% | 1014 hPa | 0 mm | - | 300 W/m² | - |
| 1778089798 | 11.67° C | 50% | 1014.2 hPa | 0 mm | - | 325 W/m² | - |
| 1778089496 | 11.11° C | 49% | 1014.2 hPa | 0 mm | - | 360 W/m² | - |
| 1778089187 | 11.67° C | 51% | 1014.5 hPa | 0 mm | - | 312 W/m² | - |
| 1778088885 | 11.11° C | 48% | 1014.4 hPa | 0 mm | - | 317 W/m² | - |
| 1778088581 | 11.11° C | 47% | 1014.5 hPa | 0 mm | - | 373 W/m² | - |
* Rain latest hour (hover to see other rain measurements)
** Current wind speed in m/s (hover to see current wind gust speed)